Tracking 17780 objects as of 28-July-2016
HD Live streaming from Space Station
objects crossing your sky now

MAQSAT H

Track MAQSAT H now!
10-day predictions
MAQSAT H is classified as:


NORAD ID: 25023
Int'l Code: 1997-066A
Perigee: 738.3 km
Apogee: 27,134.5 km
Inclination: 7.7 °
Period: 480.0 minutes
Semi major axis: 20307 km
RCS: 21.0323 m2 (large)
Launch date: October 30, 1997
Source: European Space Agency (ESA)
Launch site: FRENCH GUIANA (FRGUI)
Your satellite tracking list
Your tracking list is empty





NASA's NSSDC Master Catalog

Two Line Element Set (TLE):
1 25023U 97066A   16209.18832690 -.00000132  00000-0 -40358-3 0  9996
2 25023   7.6672 199.6078 6499162 136.3267 354.5455  3.09948584211855
Source of the keplerian elements: AFSPC

N2YO: 1378